Wind_Speed
1 2 3 4 5 5 3 5 8 9 5 20 26 22 20 20 18 17 18 17 15 14 14 14 14 13 13 14 14 14 16 15 15 15 14 13 14 14 13 11 12 11 12
4 3 2 5 5 5 6 6 10 11 12 15 15 21 20 20 18 17 18 17 16 14 13 13 14 14 13 14 14 14 14 14 13 13 13 12 12 12 11 10 10 11 12
6 7 6 6 7 7 7 7 9 12 13 10 8 16 23 18 17 18 17 17 15 14 13 13 13 13 13 14 13 14 13 12 12 12 12 11 11 11 10 9 9 10 10
8 9 9 8 8 7 9 9 9 10 12 11 9 18 30 16 16 17 17 17 15 14 13 12 13 13 13 13 13 14 13 12 12 12 11 11 11 11 9 7 7 7 8
9 11 12 10 9 9 9 9 10 10 11 11 13 17 15 14 15 16 14 15 15 14 13 13 13 13 13 12 12 13 12 11 11 10 11 11 12 11 9 7 7 7 6
7 12 12 12 10 10 10 9 10 11 12 12 13 14 14 13 13 15 14 14 14 13 13 13 14 13 13 11 11 11 11 11 11 11 11 10 11 11 10 8 7 6 6
7 9 9 10 10 10 12 12 11 11 12 15 14 14 14 14 14 12 13 12 13 13 13 13 14 14 13 12 12 10 10 9 11 10 10 10 10 10 10 9 7 6 6
15 5 6 7 7 7 12 14 13 11 10 11 13 13 14 16 16 12 12 12 11 12 13 14 14 14 14 12 11 10 9 9 9 10 10 9 9 9 9 8 7 6 5
16 9 7 4 5 4 8 13 13 12 11 10 11 13 14 14 18 14 11 12 12 13 14 13 14 15 15 13 12 11 9 10 10 10 9 9 8 8 8 8 8 7 6
16 10 8 6 2 3 7 10 13 12 12 12 12 13 15 16 17 17 13 13 13 12 14 14 14 14 15 15 13 12 9 10 10 10 10 9 8 9 9 9 8 8 6
17 14 4 6 3 3 6 8 10 12 12 12 11 13 15 18 18 19 16 14 12 12 14 14 14 15 16 16 15 13 12 10 10 10 10 9 8 8 8 9 8 7 4
16 14 9 1 5 6 7 8 10 11 13 14 15 14 14 19 22 22 18 15 13 12 13 15 15 15 15 16 16 14 13 12 10 10 10 10 9 9 9 9 8 6 4
13 12 9 4 5 5 7 8 9 10 11 12 15 15 15 14 22 23 20 17 15 14 14 15 16 15 16 15 16 16 16 14 12 11 11 11 11 11 10 9 7 6 6
14 12 8 5 3 5 5 7 8 10 11 13 15 14 14 11 15 24 21 19 16 16 16 16 16 17 16 16 15 16 17 16 14 13 14 13 12 12 11 11 9 8 9
15 13 10 5 3 3 2 4 5 9 10 12 14 14 14 11 11 19 23 21 20 19 19 18 18 18 18 17 16 16 17 18 16 15 16 15 14 14 14 13 12 11 11
14 13 10 9 4 2 3 3 4 5 8 12 15 15 15 14 13 12 17 19 21 20 21 20 20 20 20 20 20 19 19 20 19 17 18 17 15 16 16 16 14 13 13
16 12 10 6 6 3 1 1 2 3 6 5 16 16 16 16 15 15 16 18 21 22 22 21 21 21 21 22 21 20 20 19 19 19 19 18 18 18 17 17 16 15 15
11 13 10 7 5 5 3 3 2 1 2 3 8 15 16 21 18 17 17 19 20 21 23 23 24 24 23 23 24 23 22 22 20 20 20 20 20 20 19 18 18 18 18
6 10 11 9 7 5 6 5 3 3 2 2 6 8 10 12 22 20 19 19 20 22 22 23 24 25 27 25 24 24 25 24 24 22 21 21 22 21 20 20 21 20 20
4 5 9 11 9 7 6 7 6 5 5 4 3 5 7 9 13 21 22 21 22 22 23 24 26 27 27 28 26 25 25 26 26 26 25 24 24 24 23 21 23 23 22
10 5 5 9 11 10 9 7 7 7 6 5 6 6 7 8 9 13 16 20 24 25 27 27 28 27 28 28 28 29 28 27 27 27 27 27 26 26 24 24 23 25 25
16 11 9 7 10 11 11 11 8 9 8 9 7 7 7 8 9 11 13 15 18 20 23 32 31 28 28 29 29 28 28 32 30 29 29 28 28 26 25 25 25 25 24
21 17 14 10 10 11 12 13 14 11 10 11 10 8 8 9 9 11 13 14 17 20 24 25 31 32 33 28 27 27 27 30 32 32 32 30 29 28 28 27 24 22 20
19 18 18 16 12 11 12 15 16 16 13 11 12 11 10 9 9 9 10 13 17 19 21 24 20 27 31 29 28 30 30 30 30 31 33 34 33 31 27 27 26 22 22
23 25 21 17 17 16 14 15 17 17 18 13 13 13 12 12 12 11 12 12 16 19 21 22 19 21 22 30 30 27 30 32 32 34 29 30 31 29 29 27 27 24 24
28 28 26 19 19 23 20 16 17 18 19 18 15 13 12 12 12 13 13 11 9 15 17 17 21 16 18 20 21 24 24 31 31 37 36 33 31 31 31 30 27 26 26
Wind_Direction
325 135 158 141 145 125 112 109 109 105 57 175 140 133 139 139 138 139 142 142 136 135 124 122 120 116 115 119 118 123 126 124 118 111 107 106 105 107 105 103 99 99 98
175 165 153 150 160 156 145 131 130 131 133 136 156 149 133 135 139 142 142 143 141 139 135 128 124 122 118 121 127 129 129 128 126 122 116 113 108 106 103 104 103 99 97
188 176 163 172 167 169 166 156 152 149 153 141 166 166 147 134 140 144 145 144 147 144 138 135 128 128 124 124 134 132 141 137 136 133 124 115 107 108 107 103 103 101 98
192 183 172 177 173 173 174 174 172 158 157 151 134 137 181 132 138 143 147 146 152 150 144 138 137 133 129 127 137 138 143 147 145 146 138 128 114 108 106 106 103 102 98
193 185 181 182 170 177 178 180 182 174 163 162 159 139 142 120 135 142 146 148 150 154 149 144 142 140 137 138 137 141 146 145 147 154 150 143 130 120 116 110 110 112 107
184 182 183 187 173 180 184 188 184 182 176 170 164 164 158 151 144 143 141 145 150 155 153 149 146 147 141 144 145 139 144 148 145 148 147 142 140 129 124 121 115 115 107
48 173 178 191 178 180 181 188 188 186 185 179 177 169 167 167 165 145 143 150 155 156 156 155 153 153 151 157 150 146 154 156 151 155 151 148 148 137 135 132 129 120 109
42 108 172 182 187 182 184 188 189 183 188 191 186 176 172 179 174 163 157 161 161 161 162 161 159 161 161 166 158 152 159 166 162 164 161 156 153 147 142 141 138 131 123
35 60 146 149 171 185 201 189 189 185 182 190 186 185 185 179 178 181 175 168 175 167 163 165 165 167 169 176 171 163 162 171 168 172 167 171 170 159 154 150 143 135 130
39 40 115 85 141 166 201 196 189 192 191 192 196 190 192 194 185 189 183 180 184 174 165 167 172 174 176 187 184 174 176 175 174 178 173 176 176 166 163 158 152 142 142
37 36 63 132 166 161 185 192 196 195 200 200 203 208 200 198 194 194 186 186 184 182 178 175 173 178 185 192 191 185 187 183 176 183 183 183 184 177 174 167 159 149 148
24 29 40 149 164 165 172 187 196 201 202 203 206 216 206 200 198 193 192 188 191 191 191 184 183 184 187 194 193 190 193 193 189 190 195 194 192 189 186 180 173 171 189
21 17 32 49 200 178 176 194 200 203 210 205 206 218 221 224 195 199 199 196 197 200 200 197 194 194 192 194 190 195 200 204 199 202 200 199 199 201 196 197 195 208 234
8 23 25 48 74 193 185 190 201 205 212 216 218 222 225 232 187 196 203 204 205 207 211 205 202 204 199 200 189 198 207 210 206 209 204 199 204 209 211 216 216 228 254
2 4 30 45 72 99 158 186 218 226 222 223 229 225 227 227 217 194 208 203 214 215 216 210 209 210 205 207 199 203 211 215 211 212 206 205 208 210 219 227 236 240 253
360 357 11 48 58 69 90 114 184 204 230 237 232 230 228 222 225 212 209 211 218 217 221 221 215 211 210 211 209 207 214 217 214 214 214 213 218 219 225 233 242 254 265
18 359 0 27 41 35 33 72 158 183 206 255 223 221 229 231 222 218 218 218 219 220 225 226 229 226 219 216 218 216 213 214 215 215 217 220 227 231 234 241 249 258 269
9 359 349 359 13 7 349 360 353 333 216 211 225 231 235 232 229 227 224 223 223 225 229 228 231 230 228 224 222 223 223 226 223 221 225 226 231 237 243 250 256 263 271
355 359 341 336 343 344 333 328 326 321 313 244 225 220 228 222 227 228 226 225 229 230 231 232 233 233 233 232 229 229 231 234 237 234 233 237 239 241 244 253 259 265 272
287 342 345 334 328 328 328 325 319 309 292 284 275 256 240 235 224 230 233 232 230 232 234 234 235 236 236 236 236 238 238 237 238 242 243 243 246 250 252 254 263 267 271
249 262 306 325 333 324 316 322 323 314 312 294 269 250 248 246 241 244 242 241 243 243 241 237 235 232 232 233 235 238 238 239 241 242 244 245 246 249 255 261 260 264 267
247 256 254 291 320 327 311 306 309 306 305 295 281 271 269 254 249 255 254 253 242 253 255 240 240 236 234 233 231 235 239 241 242 242 243 245 248 253 255 260 266 269 270
247 261 260 262 289 313 314 303 298 302 301 301 298 278 264 259 251 247 257 261 251 242 241 247 244 240 230 232 238 239 241 240 243 246 248 248 250 254 258 263 267 269 268
250 257 261 267 271 284 300 310 297 295 296 297 296 295 276 263 263 265 269 268 263 252 252 243 256 240 228 232 236 243 242 244 245 245 245 251 254 255 258 261 265 264 268
254 253 256 257 272 275 279 298 306 297 287 290 292 295 296 284 277 277 273 277 274 256 256 239 249 248 233 231 236 250 241 246 245 245 240 246 253 255 256 258 261 265 267
260 260 258 257 264 273 275 283 295 304 294 288 285 293 295 288 282 271 277 278 281 257 258 255 252 256 259 238 235 250 261 244 252 242 245 243 247 254 262 260 265 266 272
Height
5866 5865 5865 5866 5867 5868 5868 5868 5868 5868 5871 5871 5871 5875 5878 5880 5882 5885 5888 5890 5892 5895 5896 5898 5898 5900 5900 5901 5903 5904 5906 5908 5908 5909 5910 5911 5911 5911 5912 5913 5913 5914 5914
5865 5866 5866 5866 5868 5869 5870 5869 5869 5871 5872 5874 5875 5875 5878 5880 5884 5886 5889 5891 5893 5896 5897 5899 5900 5900 5902 5903 5905 5907 5908 5910 5911 5911 5912 5913 5913 5914 5914 5916 5916 5916 5916
5864 5864 5866 5867 5868 5869 5871 5871 5872 5873 5874 5874 5874 5875 5878 5882 5885 5887 5890 5892 5894 5896 5898 5899 5901 5902 5904 5905 5907 5908 5910 5912 5912 5913 5914 5915 5915 5916 5917 5918 5919 5919 5919
5864 5864 5865 5867 5868 5869 5871 5873 5874 5874 5875 5876 5876 5875 5880 5883 5886 5888 5890 5892 5895 5897 5898 5900 5902 5904 5905 5907 5909 5910 5912 5913 5914 5915 5916 5916 5917 5918 5919 5920 5921 5921 5922
5863 5865 5865 5866 5867 5869 5871 5873 5875 5875 5876 5878 5879 5881 5883 5883 5887 5889 5891 5893 5895 5898 5899 5901 5903 5904 5906 5909 5910 5911 5913 5914 5915 5916 5916 5917 5918 5919 5920 5922 5923 5923 5923
5862 5865 5866 5867 5867 5868 5870 5873 5875 5877 5878 5879 5881 5883 5884 5886 5888 5890 5891 5894 5895 5898 5899 5901 5903 5906 5907 5910 5912 5913 5914 5915 5916 5917 5918 5919 5919 5919 5921 5922 5923 5924 5924
5864 5865 5867 5868 5869 5870 5871 5873 5876 5878 5879 5881 5883 5884 5885 5887 5890 5891 5892 5895 5896 5898 5900 5902 5904 5906 5908 5911 5913 5913 5915 5916 5917 5918 5919 5920 5920 5921 5922 5923 5924 5925 5925
5867 5866 5867 5868 5870 5871 5871 5873 5876 5878 5880 5882 5883 5883 5885 5887 5890 5892 5894 5895 5897 5898 5900 5902 5903 5906 5909 5912 5914 5914 5916 5917 5918 5919 5920 5921 5921 5922 5923 5924 5925 5926 5926
5870 5869 5868 5869 5870 5871 5872 5873 5875 5878 5880 5881 5883 5884 5886 5888 5889 5891 5894 5896 5897 5899 5900 5902 5904 5906 5908 5911 5914 5915 5916 5917 5918 5920 5921 5922 5923 5923 5923 5924 5925 5926 5927
5874 5873 5872 5871 5872 5872 5873 5874 5875 5878 5881 5882 5884 5885 5886 5888 5890 5892 5893 5895 5897 5898 5900 5902 5904 5906 5909 5911 5913 5915 5916 5918 5918 5920 5921 5922 5923 5924 5924 5925 5926 5927 5928
5877 5875 5875 5873 5873 5873 5874 5875 5877 5878 5880 5882 5883 5884 5885 5887 5889 5891 5893 5895 5896 5898 5900 5902 5903 5906 5908 5911 5913 5914 5916 5918 5918 5920 5921 5923 5924 5925 5926 5927 5928 5928 5929
5880 5877 5875 5874 5874 5874 5874 5875 5876 5878 5879 5880 5882 5883 5884 5884 5887 5889 5892 5894 5896 5898 5900 5901 5903 5906 5908 5910 5912 5914 5916 5918 5919 5920 5921 5923 5924 5926 5927 5928 5929 5929 5929
5881 5878 5876 5875 5874 5874 5875 5876 5877 5878 5879 5880 5880 5882 5882 5883 5886 5889 5890 5892 5895 5898 5900 5901 5903 5905 5907 5909 5910 5913 5915 5916 5918 5919 5921 5923 5925 5926 5927 5928 5929 5930 5929
5882 5880 5877 5876 5875 5875 5875 5876 5877 5878 5879 5880 5880 5881 5882 5882 5883 5886 5888 5891 5894 5897 5899 5901 5903 5905 5906 5908 5909 5912 5914 5916 5917 5919 5920 5922 5924 5926 5926 5927 5928 5929 5929
5883 5881 5878 5876 5876 5876 5875 5876 5876 5877 5878 5879 5879 5880 5881 5882 5882 5882 5886 5888 5892 5895 5898 5899 5902 5903 5905 5906 5908 5910 5912 5915 5916 5918 5919 5921 5922 5924 5925 5925 5926 5927 5928
5885 5882 5880 5878 5878 5877 5876 5875 5875 5876 5876 5877 5878 5880 5881 5882 5882 5883 5885 5888 5890 5893 5896 5898 5899 5901 5903 5905 5906 5908 5910 5912 5914 5916 5918 5919 5921 5922 5923 5923 5924 5925 5925
5886 5883 5882 5880 5879 5878 5877 5876 5875 5875 5874 5874 5873 5876 5879 5880 5882 5883 5885 5887 5889 5891 5893 5896 5898 5900 5901 5903 5905 5906 5908 5910 5912 5914 5915 5917 5918 5920 5921 5922 5922 5923 5923
5888 5885 5883 5880 5879 5878 5878 5877 5876 5875 5874 5874 5874 5876 5877 5878 5880 5881 5883 5885 5887 5889 5890 5892 5894 5897 5898 5900 5902 5904 5906 5908 5910 5911 5912 5914 5915 5917 5918 5919 5920 5921 5921
5887 5885 5883 5881 5880 5878 5878 5878 5877 5875 5874 5873 5873 5874 5874 5875 5877 5878 5879 5882 5884 5886 5888 5890 5891 5893 5895 5898 5900 5902 5904 5906 5908 5909 5910 5911 5912 5913 5914 5916 5916 5917 5917
5886 5885 5883 5881 5880 5878 5877 5877 5876 5876 5875 5874 5873 5873 5872 5872 5872 5875 5877 5878 5880 5882 5884 5886 5887 5889 5892 5895 5897 5899 5901 5901 5903 5905 5907 5908 5909 5909 5910 5912 5912 5913 5913
5884 5884 5882 5881 5880 5878 5877 5876 5876 5875 5874 5873 5872 5872 5871 5870 5871 5872 5873 5875 5877 5878 5879 5881 5882 5884 5885 5888 5891 5893 5896 5897 5899 5900 5902 5903 5904 5905 5906 5907 5908 5908 5909
5881 5881 5881 5880 5879 5877 5876 5876 5876 5875 5873 5873 5872 5871 5870 5869 5869 5869 5870 5871 5872 5873 5873 5875 5876 5878 5880 5882 5884 5887 5890 5892 5894 5895 5896 5898 5899 5901 5902 5902 5903 5902 5902
5877 5878 5879 5879 5877 5876 5875 5874 5874 5873 5873 5872 5871 5870 5869 5867 5866 5866 5867 5867 5868 5867 5867 5868 5869 5871 5873 5877 5879 5882 5884 5886 5887 5891 5892 5893 5894 5895 5896 5897 5898 5898 5898
5874 5874 5876 5877 5876 5874 5873 5872 5872 5872 5871 5870 5869 5869 5867 5866 5865 5864 5863 5862 5863 5863 5864 5864 5864 5864 5867 5871 5874 5876 5878 5880 5882 5883 5886 5887 5889 5890 5891 5892 5893 5895 5895
5869 5870 5871 5873 5873 5872 5871 5870 5870 5869 5868 5868 5868 5867 5865 5865 5864 5863 5861 5859 5858 5858 5858 5859 5859 5858 5858 5862 5867 5869 5871 5873 5875 5876 5879 5881 5883 5885 5885 5888 5888 5890 5891
5863 5865 5867 5870 5870 5868 5868 5868 5867 5866 5866 5866 5866 5864 5863 5861 5862 5861 5859 5857 5855 5854 5854 5855 5855 5852 5854 5855 5859 5861 5863 5866 5867 5870 5873 5874 5876 5879 5881 5883 5884 5885 5886